SCP
-0 -0 0 0 0 -0 -0 0 0 -0 -0 -0 -0 0 0 0 0 0 0 0 0 0 0 0 0 0 -0 -0 0 0 0 0 0 0 0 0 0 0 0 0 0 0 0 0 0 0 0 0 0
0 0 0 0 -0 -0 0 0 -0 -0 -0 -0 -0 0 -0 0 0 0 0 -0 0 0 0 0 0 0 0 0 0 0 0 0 0 0 0 0 0 0 0 0 0 0 0 0 0 0 0 0 0
0 0 0 0 0 0 -0 0 -0 -0 0 0 0 -0 0 0 0 0 0 0 0 0 0 0 0 0 0 0 0 0 0 0 0 0 0 0 0 0 0 0 0 0 0 0 0 0 0 0 0
0 0 0 0 0 -0 -0 -0 -0 -0 -0 0 -0 0 0 0 0 0 0 0 0 0 0 0 0 0 0 0 0 0 0 0 0 0 0 0 0 0 0 0 0 0 0 0 0 0 0 0 0
0 0 0 0 0 -0 -0 -0 0 0 0 0 0 0 0 0 0 0 0 0 0 0 0 0 0 0 0 0 0 0 0 0 0 0 0 0 0 0 0 0 0 0 0 0 0 0 0 0 0
0 0 0 0 0 -0 -0 -0 0 0 0 0 0 0 0 0 0 0 0 0 0 0 0 0 0 0 0 0 0 0 0 0 0 0 0 0 0 0 0 0 0 0 0 0 0 0 0 0 0
0 0 0 -0 -0 -0 -0 0 0 0 0 0 0 0 0 0 0 0 0 0 0 0 0 0 0 0 0 0 0 0 0 0 0 0 0 0 0 0 0 0 0 0 0 0 0 0 0 0 0
0 0 0 0 -0 0 0 0 0 0 0 0 0 0 0 0 0 0 0 0 0 0 0 0 0 0 0 0 0 0 0 0 0 0 0 0 0 0 0 0 0 0 0 0 0 0 0 0 0
0 0 0 0 0 0 0 0 0 0 0 0 0 0 0 0 0 0 0 0 0 0 0 0 0 0 0 0 0 0 0 0 0 0 0 0 0 0 0 0 0 0 0 0 0 0 0 0 0
0 0 0 0 0 0 0 0 0 0 0 0 0 0 0 0 0 0 0 0 0 0 0 0 0 0 0 0 0 0 0 0 0 0 0 0 0 0 0 0 0 0 0 0 0 0 0 0 0
0 0 0 0 0 0 0 0 0 0 0 0 0 0 0 0 0 0 0 0 0 0 0 0 0 0 0 0 0 0 0 0 0 0 0 0 0 0 0 0 0 0 0 0 0 0 0 0 0
0 0 0 0 0 0 0 0 0 0 0 0 0 0 0 0 0 0 0 0 0 0 0 0 0 0 0 0 0 0 0 0 0 0 0 0 0 0 0 0 0 0 0 0 0 0 0 0 0
-0 0 0 0 0 0 0 0 0 0 0 0 0 0 0 0 0 0 0 0 0 0 0 0 0 0 0 0 0 0 0 0 0 0 0 0 0 0 0 0 0 0 0 0 0 0 0 0 0
0 -0 0 0 0 0 0 0 0 0 0 0 0 0 0 0 0 0 0 0 0 0 0 0 0 0 0 0 0 0 0 0 0 0 0 0 0 0 0 0 0 0 0 0 0 0 0 0 0
0 0 0 0 0 0 0 0 -0 0 0 0 0 0 0 0 0 0 0 0 0 0 0 0 0 0 0 0 0 0 0 0 0 0 0 0 0 0 0 0 0 0 0 0 0 0 0 0 0
0 0 0 0 0 0 0 -0 0 0 0 0 0 0 0 0 0 0 0 0 0 0 0 0 0 0 0 0 0 0 0 0 0 0 0 0 0 0 0 0 0 0 0 0 0 0 0 0 0
0 0 -0 0 0 0 0 -0 0 0 0 0 0 0 0 0 0 0 0 0 0 0 0 0 0 0 0 0 0 0 0 0 0 0 0 0 0 0 0 0 0 0 0 0 0 0 0 0 0
0 0 0 0 0 0 -0 -0 -0 0 0 0 0 0 0 0 0 0 0 0 0 0 0 0 0 0 0 0 0 0 0 0 0 0 0 0 0 0 0 0 0 0 0 0 0 0 0 0 0
0 -0 -0 0 0 0 0 -0 0 0 0 0 0 0 0 0 0 0 0 0 0 0 0 0 0 0 0 0 0 0 0 0 0 0 0 0 0 0 0 0 0 0 0 0 0 0 0 0 0
0 -0 0 0 0 -0 0 -0 0 0 0 0 0 0 0 0 0 0 0 0 0 0 0 0 0 0 0 0 0 0 0 0 0 0 0 0 0 0 0 0 0 0 0 0 0 0 0 0 0
0 0 0 0 0 0 0 0 0 0 0 0 0 0 0 0 0 0 0 0 0 0 0 0 0 0 0 0 0 0 0 0 0 0 0 0 0 0 0 0 0 0 0 0 0 0 0 0 0
0 0 0 0 0 0 0 0 0 0 0 0 0 0 0 0 0 0 0 0 0 0 0 0 0 0 0 0 0 0 0 0 0 0 0 0 0 0 0 0 0 0 0 0 0 0 0 0 0
0 0 0 0 0 0 0 0 0 0 0 0 0 0 0 0 0 0 0 0 0 0 0 0 0 0 0 0 0 0 0 0 0 0 0 0 0 0 0 0 0 0 0 0 0 0 0 0 0
0 0 0 0 0 0 0 0 0 0 0 0 0 0 0 0 0 0 0 0 0 0 0 0 0 0 0 0 0 0 0 0 0 0 0 0 0 0 0 0 0 0 0 0 0 0 0 0 0
0 0 -0 0 0 0 0 0 0 0 0 0 0 0 0 0 0 0 0 0 0 0 0 0 0 0 0 0 0 0 0 0 0 0 0 0 0 0 0 0 0 0 0 0 0 0 0 0 0
0 0 -0 0 0 0 0 0 0 0 0 0 0 0 0 0 0 0 0 0 0 0 0 0 0 0 0 0 0 0 0 0 0 0 0 0 0 0 0 0 0 0 0 0 0 0 0 0 0
0 0 0 0 0 0 0 0 0 0 0 0 0 0 0 0 0 0 0 0 0 0 0 0 0 0 0 0 0 0 0 0 0 0 0 0 0 0 0 0 0 0 0 0 0 0 0 0 0
0 0 0 0 0 0 0 0 0 0 0 0 0 0 0 0 0 0 0 0 0 0 0 0 0 0 0 0 0 0 0 0 0 0 0 0 0 0 0 0 0 0 0 0 0 0 0 0 0
0 0 0 0 0 0 0 0 0 0 0 0 0 0 0 0 0 0 0 0 0 0 0 0 0 0 0 0 0 0 0 0 0 0 0 0 0 0 0 0 0 0 0 0 0 0 0 0 0
0 0 0 0 0 0 0 0 0 0 0 0 0 0 0 0 0 0 0 0 0 0 0 0 0 0 0 0 0 0 0 0 0 0 0 0 0 0 0 0 0 0 0 0 0 0 0 0 0
Wind_Speed_500mb
6 5 3 6 8 3 11 7 1 8 7 17 13 18 24 24 10 7 5 10 14 14 17 19 24 21 19 18 19 10 6 7 14 18 21 27 28 24 24 24 24 23 23 24 26 25 23 24 23
3 2 2 8 9 14 8 7 13 17 15 11 13 9 20 11 17 8 7 13 16 13 11 15 16 14 12 14 16 11 8 9 13 17 20 21 24 26 28 27 27 26 27 29 30 30 29 29 28
3 5 10 6 9 14 15 9 18 14 8 3 9 22 11 7 9 6 10 6 14 12 11 15 16 15 13 14 14 14 13 14 15 16 17 21 25 29 30 31 31 29 29 28 29 30 30 30 31
2 5 5 14 15 14 19 14 11 15 13 10 18 18 14 12 3 9 9 11 16 12 14 14 15 16 16 19 18 18 20 22 24 26 28 30 33 35 36 36 35 34 33 33 33 33 33 35 35
2 7 6 11 13 14 12 10 4 4 10 10 4 13 11 10 12 12 9 11 9 9 12 16 18 20 22 23 25 27 28 28 29 30 29 31 33 35 36 37 35 34 34 35 36 36 37 37 38
5 7 15 12 14 13 12 10 9 11 8 9 16 14 9 7 7 8 7 9 12 14 16 18 22 25 29 32 35 36 35 35 34 33 32 33 34 35 36 36 37 37 37 38 38 39 39 40 41
1 7 7 21 18 13 10 4 4 5 6 11 4 5 10 5 5 2 6 9 16 20 22 25 29 35 43 43 38 33 32 32 31 31 32 34 36 37 39 40 41 44 44 44 44 44 45 45 45
4 5 14 5 16 8 6 5 6 10 8 5 4 6 12 14 8 10 13 15 19 23 27 31 34 36 33 34 36 34 32 32 33 33 34 34 36 37 38 39 41 43 45 47 48 48 49 49 49
6 5 10 7 7 10 7 3 7 5 8 4 1 3 13 16 14 12 10 9 11 15 26 31 30 31 33 32 35 35 34 32 31 32 34 34 34 37 39 42 42 44 45 47 49 50 52 54 54
9 4 6 10 12 9 6 3 3 8 9 6 10 9 10 11 6 5 9 11 13 19 28 28 30 33 33 34 31 28 27 27 29 33 34 35 36 38 41 42 45 46 47 47 49 51 52 49 44
11 7 11 12 10 6 3 4 5 12 12 8 8 12 10 9 10 8 6 8 18 21 25 28 30 32 31 29 28 25 24 24 25 32 34 34 34 35 36 37 38 42 39 39 44 43 41 43 52
11 15 12 7 6 1 3 2 8 13 6 7 10 15 15 12 9 7 6 10 16 18 23 29 30 31 31 28 26 26 25 26 27 31 33 34 35 37 40 41 43 42 41 46 46 49 50 48 48
18 9 11 7 8 4 6 10 17 17 15 14 13 14 16 14 10 7 13 17 18 21 25 28 31 30 28 26 23 22 22 23 26 31 35 38 41 45 48 50 50 49 49 52 56 57 57 58 56
11 18 12 8 5 7 9 11 6 16 22 23 20 16 16 15 10 7 12 15 19 24 26 27 27 25 23 22 22 22 24 27 29 34 39 42 45 49 51 54 54 52 56 61 62 60 61 62 61
14 8 4 6 9 5 8 18 28 21 19 23 24 23 18 12 11 16 23 24 22 24 24 23 23 22 21 22 23 26 30 33 34 39 43 48 52 56 59 59 59 59 65 67 65 64 64 64 63
3 4 5 8 6 1 7 21 10 21 22 29 27 24 24 22 21 24 26 25 26 26 25 24 23 24 24 26 28 30 33 34 39 42 47 52 57 58 60 61 60 64 69 68 66 65 67 69 68
1 6 8 5 8 10 10 28 14 14 23 34 34 32 30 31 27 28 29 28 29 27 26 26 27 28 29 30 32 34 36 40 44 47 51 55 58 60 64 66 67 69 74 72 68 63 63 65 67
13 10 9 12 8 13 29 48 45 38 29 35 36 36 37 38 34 27 30 30 30 30 29 30 30 33 34 35 36 37 36 44 43 49 50 57 59 64 70 72 70 69 69 65 59 64 60 60 60
10 13 20 15 8 17 22 43 43 43 46 36 41 40 40 39 31 30 31 30 33 33 32 33 34 35 36 38 41 45 44 51 43 49 49 59 65 69 73 73 70 67 64 61 59 58 54 56 54
10 15 14 17 2 19 28 51 37 7 22 33 38 38 37 36 36 32 31 35 35 33 35 35 34 35 37 42 46 49 50 54 56 54 55 65 68 74 74 71 69 62 63 56 51 49 56 55 49
3 6 12 15 26 6 27 19 9 7 6 10 21 29 34 39 37 36 33 31 30 33 33 34 36 38 40 43 47 47 51 47 43 45 65 70 79 81 75 70 67 62 53 53 50 49 49 58 51
8 7 14 19 15 8 10 10 16 5 6 10 20 27 30 32 31 31 31 33 33 35 37 36 38 38 37 41 44 46 46 44 46 52 61 65 66 64 57 60 57 56 54 53 53 48 51 52 58
7 13 13 10 7 12 3 6 11 3 5 6 8 18 25 26 28 31 33 31 31 31 31 36 37 35 37 42 47 47 44 47 51 56 59 61 61 54 57 54 54 54 55 57 57 57 56 56 59
18 10 8 5 4 6 6 9 17 5 2 1 2 4 9 13 23 28 27 27 28 28 36 32 35 37 35 40 48 47 49 53 57 59 60 65 60 63 55 53 56 56 58 59 60 62 61 60 61
12 7 7 5 4 7 4 11 23 15 8 6 9 8 7 8 19 22 22 26 26 23 25 26 30 38 41 45 47 51 55 55 57 58 60 61 65 63 60 56 61 63 64 65 67 66 66 65 65
8 3 4 10 10 17 7 13 8 4 2 6 10 8 9 11 9 17 20 19 20 21 24 26 32 39 42 47 52 53 54 57 58 58 58 62 63 64 66 66 67 68 69 69 68 68 68 67 67
5 3 6 5 4 4 7 12 23 8 6 4 1 5 6 10 15 17 17 15 16 19 23 32 35 40 45 50 52 52 53 54 55 57 58 63 63 67 68 68 71 71 72 72 70 71 71 68 70
3 6 2 2 12 15 8 9 16 4 6 5 6 4 3 17 22 22 11 13 18 19 25 30 34 42 49 50 50 50 53 53 56 59 61 63 67 68 71 70 72 74 73 75 73 72 74 68 71
5 4 2 4 4 7 13 10 8 9 5 5 6 5 15 29 31 23 14 15 17 21 26 34 42 48 49 50 54 53 54 56 58 61 63 65 69 69 73 76 76 75 74 78 77 72 73 65 67
3 6 7 6 5 8 7 20 5 5 8 3 11 14 28 35 20 11 10 13 19 25 37 42 48 50 53 54 58 58 57 58 59 62 63 66 70 73 71 77 81 83 80 74 76 69 59 68 70
Wind_Direction_500mb
283 350 147 221 237 168 182 119 9 131 112 63 70 69 88 42 14 50 336 13 71 54 61 52 53 58 51 39 32 19 9 8 1 342 333 326 323 329 327 325 325 325 324 324 325 323 321 316 314
267 122 220 241 245 175 123 142 98 62 98 103 69 92 56 68 37 42 76 63 86 89 61 35 25 20 30 3 2 9 1 332 327 324 327 323 328 330 328 325 323 323 321 319 318 316 314 313 312
122 109 258 257 286 83 123 92 112 88 90 83 104 61 60 27 10 54 68 87 81 65 48 30 10 7 17 12 4 354 346 340 335 326 322 324 324 323 323 321 320 318 317 315 314 312 310 307 307
105 212 202 250 93 37 102 101 89 109 89 56 101 85 86 48 83 90 122 94 72 53 47 35 18 6 4 357 350 343 331 327 322 319 318 315 313 311 310 309 308 309 309 310 309 308 307 306 305
339 226 133 103 93 109 84 76 78 111 82 57 213 119 84 58 104 122 103 68 37 3 348 347 347 338 336 334 332 330 323 319 315 313 311 307 307 308 307 306 306 305 304 304 303 302 302 302 301
211 266 149 154 124 117 90 69 69 83 115 71 96 109 97 120 147 115 63 15 342 337 336 333 329 326 324 322 322 315 312 312 310 308 306 305 306 307 308 309 309 308 306 303 301 299 297 295 294
35 303 73 132 133 133 100 50 57 72 135 59 57 138 122 134 116 351 314 326 329 324 320 323 323 323 321 318 324 320 317 318 315 315 315 314 314 314 312 311 310 309 308 308 306 304 301 299 298
74 86 145 136 168 110 94 99 32 1 89 96 21 163 167 201 220 262 295 304 303 300 310 312 315 321 328 331 326 326 324 321 318 317 317 317 315 315 312 310 310 308 307 306 305 304 302 301 298
48 157 151 124 156 104 121 186 48 33 117 84 39 150 149 188 226 252 292 346 354 348 317 314 319 323 326 326 323 324 321 317 315 314 314 317 317 315 316 313 313 310 308 307 306 305 305 304 303
22 150 90 40 48 83 81 291 101 219 172 136 129 133 155 199 215 250 282 287 326 314 305 308 315 320 326 326 329 329 328 327 325 321 322 322 323 320 322 321 320 316 314 312 309 308 305 306 301
19 55 113 65 47 56 71 179 215 241 230 225 221 193 204 208 234 244 276 320 299 304 308 312 319 324 326 328 332 333 333 333 330 323 326 327 328 326 328 328 325 324 324 319 317 314 311 302 302
99 53 48 42 19 64 222 266 254 256 332 169 184 202 214 222 233 237 266 297 302 311 316 319 321 323 324 325 325 326 328 330 330 330 332 334 333 332 331 330 328 324 322 317 316 313 310 308 303
73 97 62 80 81 24 309 264 280 244 225 216 208 210 220 220 221 253 265 285 292 304 310 313 318 322 326 330 334 336 336 337 336 332 332 332 331 328 326 324 323 319 315 313 312 309 306 302 302
113 106 97 74 46 15 304 265 291 219 208 211 214 216 220 227 233 259 286 286 296 300 304 310 317 324 329 331 333 333 334 332 330 326 325 325 323 323 322 321 319 316 313 314 313 309 306 301 299
122 95 136 63 360 326 319 252 237 233 212 222 223 221 226 233 248 245 261 271 281 291 299 307 310 311 316 320 323 324 324 324 323 323 324 324 327 326 326 323 320 315 314 314 311 308 304 300 297
142 238 275 120 340 226 315 286 227 194 218 231 227 225 227 231 235 249 259 267 275 282 290 297 299 305 308 309 312 312 313 317 319 321 321 321 323 321 322 321 319 315 314 313 309 306 302 300 298
151 306 305 137 44 318 246 291 90 208 228 239 232 230 231 233 233 243 252 261 272 279 285 294 300 298 300 303 306 311 314 316 319 317 317 318 320 321 323 322 320 316 315 313 310 303 302 300 298
4 339 331 311 23 302 275 268 276 254 234 249 249 237 233 235 239 239 252 265 273 278 286 292 293 294 298 304 311 314 316 312 316 315 315 317 321 321 321 319 316 313 311 307 302 301 300 297 300
336 326 315 303 37 322 283 289 288 280 261 243 250 243 238 241 242 239 250 263 271 278 283 284 286 293 302 308 314 315 316 319 317 317 316 316 317 317 318 317 315 313 310 306 305 302 301 301 301
332 311 326 296 142 329 307 295 291 320 270 252 244 245 242 241 235 237 245 256 266 270 278 278 284 292 301 306 312 315 317 318 315 315 310 314 315 317 317 315 312 309 305 302 301 299 300 298 302
0 328 340 305 319 261 301 280 197 180 253 263 244 241 239 238 237 239 242 250 263 269 272 276 283 291 299 304 314 317 316 315 313 309 312 315 317 318 315 311 308 305 302 300 298 298 297 298 295
308 29 325 303 326 300 2 289 294 159 280 222 237 237 243 243 242 243 244 249 254 262 265 277 284 296 306 310 315 316 316 312 309 311 308 309 310 308 304 305 303 301 300 298 296 296 289 291 292
322 331 309 314 270 315 150 280 287 191 174 196 226 240 245 245 244 244 246 252 256 258 273 281 293 302 306 311 314 316 312 310 309 310 308 306 308 301 300 299 299 299 297 296 295 295 292 288 287
313 304 270 258 243 273 73 359 284 252 75 147 168 311 309 265 251 249 249 251 258 268 277 285 293 300 310 311 314 315 314 314 313 313 309 308 304 304 302 299 296 295 296 295 293 292 291 289 286
304 312 331 327 291 279 126 275 258 292 296 290 326 344 339 306 251 253 258 258 272 274 282 295 303 308 312 317 317 317 316 315 312 312 310 309 307 304 302 300 298 296 294 293 293 292 292 291 289
342 334 352 309 307 310 155 234 258 80 350 279 267 289 327 319 282 268 272 277 281 285 294 299 304 312 318 319 318 318 316 314 311 311 310 306 307 304 303 302 299 298 295 294 292 290 288 289 288
6 348 12 288 88 282 243 267 268 47 315 280 302 332 345 355 338 321 313 302 297 306 311 311 318 321 321 322 321 319 318 317 315 312 310 307 306 306 305 303 302 300 298 295 291 289 288 286 286
310 9 309 118 318 307 237 268 257 289 263 18 22 333 308 333 337 339 321 299 309 319 322 325 328 323 324 322 322 321 321 318 316 314 311 309 308 308 307 305 304 302 299 296 293 289 287 286 287
169 206 190 290 251 272 304 274 179 203 153 142 279 241 318 328 327 324 321 325 337 337 329 328 326 327 327 325 325 325 323 321 317 315 313 311 311 311 307 306 305 304 302 297 297 292 287 287 289
260 255 221 245 202 251 294 273 41 130 131 127 311 294 319 317 322 335 344 344 340 329 327 331 330 331 330 331 329 328 324 322 319 317 315 315 311 308 306 303 303 302 302 302 302 296 287 290 292
Wind_Speed_850mb
6 5 3 6 8 3 11 7 1 8 7 17 13 18 24 24 10 7 5 10 14 14 17 19 24 21 19 18 19 10 6 7 14 18 21 27 28 24 24 24 24 23 23 24 26 25 23 24 23
3 2 2 8 9 14 8 7 13 17 15 11 13 9 20 11 17 8 7 13 16 13 11 15 16 14 12 14 16 11 8 9 13 17 20 21 24 26 28 27 27 26 27 29 30 30 29 29 28
3 5 10 6 9 14 15 9 18 14 8 3 9 22 11 7 9 6 10 6 14 12 11 15 16 15 13 14 14 14 13 14 15 16 17 21 25 29 30 31 31 29 29 28 29 30 30 30 31
2 5 5 14 15 14 19 14 11 15 13 10 18 18 14 12 3 9 9 11 16 12 14 14 15 16 16 19 18 18 20 22 24 26 28 30 33 35 36 36 35 34 33 33 33 33 33 35 35
2 7 6 11 13 14 12 10 4 4 10 10 4 13 11 10 12 12 9 11 9 9 12 16 18 20 22 23 25 27 28 28 29 30 29 31 33 35 36 37 35 34 34 35 36 36 37 37 38
5 7 15 12 14 13 12 10 9 11 8 9 16 14 9 7 7 8 7 9 12 14 16 18 22 25 29 32 35 36 35 35 34 33 32 33 34 35 36 36 37 37 37 38 38 39 39 40 41
1 7 7 21 18 13 10 4 4 5 6 11 4 5 10 5 5 2 6 9 16 20 22 25 29 35 43 43 38 33 32 32 31 31 32 34 36 37 39 40 41 44 44 44 44 44 45 45 45
4 5 14 5 16 8 6 5 6 10 8 5 4 6 12 14 8 10 13 15 19 23 27 31 34 36 33 34 36 34 32 32 33 33 34 34 36 37 38 39 41 43 45 47 48 48 49 49 49
6 5 10 7 7 10 7 3 7 5 8 4 1 3 13 16 14 12 10 9 11 15 26 31 30 31 33 32 35 35 34 32 31 32 34 34 34 37 39 42 42 44 45 47 49 50 52 54 54
9 4 6 10 12 9 6 3 3 8 9 6 10 9 10 11 6 5 9 11 13 19 28 28 30 33 33 34 31 28 27 27 29 33 34 35 36 38 41 42 45 46 47 47 49 51 52 49 44
11 7 11 12 10 6 3 4 5 12 12 8 8 12 10 9 10 8 6 8 18 21 25 28 30 32 31 29 28 25 24 24 25 32 34 34 34 35 36 37 38 42 39 39 44 43 41 43 52
11 15 12 7 6 1 3 2 8 13 6 7 10 15 15 12 9 7 6 10 16 18 23 29 30 31 31 28 26 26 25 26 27 31 33 34 35 37 40 41 43 42 41 46 46 49 50 48 48
18 9 11 7 8 4 6 10 17 17 15 14 13 14 16 14 10 7 13 17 18 21 25 28 31 30 28 26 23 22 22 23 26 31 35 38 41 45 48 50 50 49 49 52 56 57 57 58 56
11 18 12 8 5 7 9 11 6 16 22 23 20 16 16 15 10 7 12 15 19 24 26 27 27 25 23 22 22 22 24 27 29 34 39 42 45 49 51 54 54 52 56 61 62 60 61 62 61
14 8 4 6 9 5 8 18 28 21 19 23 24 23 18 12 11 16 23 24 22 24 24 23 23 22 21 22 23 26 30 33 34 39 43 48 52 56 59 59 59 59 65 67 65 64 64 64 63
3 4 5 8 6 1 7 21 10 21 22 29 27 24 24 22 21 24 26 25 26 26 25 24 23 24 24 26 28 30 33 34 39 42 47 52 57 58 60 61 60 64 69 68 66 65 67 69 68
1 6 8 5 8 10 10 28 14 14 23 34 34 32 30 31 27 28 29 28 29 27 26 26 27 28 29 30 32 34 36 40 44 47 51 55 58 60 64 66 67 69 74 72 68 63 63 65 67
13 10 9 12 8 13 29 48 45 38 29 35 36 36 37 38 34 27 30 30 30 30 29 30 30 33 34 35 36 37 36 44 43 49 50 57 59 64 70 72 70 69 69 65 59 64 60 60 60
10 13 20 15 8 17 22 43 43 43 46 36 41 40 40 39 31 30 31 30 33 33 32 33 34 35 36 38 41 45 44 51 43 49 49 59 65 69 73 73 70 67 64 61 59 58 54 56 54
10 15 14 17 2 19 28 51 37 7 22 33 38 38 37 36 36 32 31 35 35 33 35 35 34 35 37 42 46 49 50 54 56 54 55 65 68 74 74 71 69 62 63 56 51 49 56 55 49
3 6 12 15 26 6 27 19 9 7 6 10 21 29 34 39 37 36 33 31 30 33 33 34 36 38 40 43 47 47 51 47 43 45 65 70 79 81 75 70 67 62 53 53 50 49 49 58 51
8 7 14 19 15 8 10 10 16 5 6 10 20 27 30 32 31 31 31 33 33 35 37 36 38 38 37 41 44 46 46 44 46 52 61 65 66 64 57 60 57 56 54 53 53 48 51 52 58
7 13 13 10 7 12 3 6 11 3 5 6 8 18 25 26 28 31 33 31 31 31 31 36 37 35 37 42 47 47 44 47 51 56 59 61 61 54 57 54 54 54 55 57 57 57 56 56 59
18 10 8 5 4 6 6 9 17 5 2 1 2 4 9 13 23 28 27 27 28 28 36 32 35 37 35 40 48 47 49 53 57 59 60 65 60 63 55 53 56 56 58 59 60 62 61 60 61
12 7 7 5 4 7 4 11 23 15 8 6 9 8 7 8 19 22 22 26 26 23 25 26 30 38 41 45 47 51 55 55 57 58 60 61 65 63 60 56 61 63 64 65 67 66 66 65 65
8 3 4 10 10 17 7 13 8 4 2 6 10 8 9 11 9 17 20 19 20 21 24 26 32 39 42 47 52 53 54 57 58 58 58 62 63 64 66 66 67 68 69 69 68 68 68 67 67
5 3 6 5 4 4 7 12 23 8 6 4 1 5 6 10 15 17 17 15 16 19 23 32 35 40 45 50 52 52 53 54 55 57 58 63 63 67 68 68 71 71 72 72 70 71 71 68 70
3 6 2 2 12 15 8 9 16 4 6 5 6 4 3 17 22 22 11 13 18 19 25 30 34 42 49 50 50 50 53 53 56 59 61 63 67 68 71 70 72 74 73 75 73 72 74 68 71
5 4 2 4 4 7 13 10 8 9 5 5 6 5 15 29 31 23 14 15 17 21 26 34 42 48 49 50 54 53 54 56 58 61 63 65 69 69 73 76 76 75 74 78 77 72 73 65 67
3 6 7 6 5 8 7 20 5 5 8 3 11 14 28 35 20 11 10 13 19 25 37 42 48 50 53 54 58 58 57 58 59 62 63 66 70 73 71 77 81 83 80 74 76 69 59 68 70
Wind_Direction_850mb
283 350 147 221 237 168 182 119 9 131 112 63 70 69 88 42 14 50 336 13 71 54 61 52 53 58 51 39 32 19 9 8 1 342 333 326 323 329 327 325 325 325 324 324 325 323 321 316 314
267 122 220 241 245 175 123 142 98 62 98 103 69 92 56 68 37 42 76 63 86 89 61 35 25 20 30 3 2 9 1 332 327 324 327 323 328 330 328 325 323 323 321 319 318 316 314 313 312
122 109 258 257 286 83 123 92 112 88 90 83 104 61 60 27 10 54 68 87 81 65 48 30 10 7 17 12 4 354 346 340 335 326 322 324 324 323 323 321 320 318 317 315 314 312 310 307 307
105 212 202 250 93 37 102 101 89 109 89 56 101 85 86 48 83 90 122 94 72 53 47 35 18 6 4 357 350 343 331 327 322 319 318 315 313 311 310 309 308 309 309 310 309 308 307 306 305
339 226 133 103 93 109 84 76 78 111 82 57 213 119 84 58 104 122 103 68 37 3 348 347 347 338 336 334 332 330 323 319 315 313 311 307 307 308 307 306 306 305 304 304 303 302 302 302 301
211 266 149 154 124 117 90 69 69 83 115 71 96 109 97 120 147 115 63 15 342 337 336 333 329 326 324 322 322 315 312 312 310 308 306 305 306 307 308 309 309 308 306 303 301 299 297 295 294
35 303 73 132 133 133 100 50 57 72 135 59 57 138 122 134 116 351 314 326 329 324 320 323 323 323 321 318 324 320 317 318 315 315 315 314 314 314 312 311 310 309 308 308 306 304 301 299 298
74 86 145 136 168 110 94 99 32 1 89 96 21 163 167 201 220 262 295 304 303 300 310 312 315 321 328 331 326 326 324 321 318 317 317 317 315 315 312 310 310 308 307 306 305 304 302 301 298
48 157 151 124 156 104 121 186 48 33 117 84 39 150 149 188 226 252 292 346 354 348 317 314 319 323 326 326 323 324 321 317 315 314 314 317 317 315 316 313 313 310 308 307 306 305 305 304 303
22 150 90 40 48 83 81 291 101 219 172 136 129 133 155 199 215 250 282 287 326 314 305 308 315 320 326 326 329 329 328 327 325 321 322 322 323 320 322 321 320 316 314 312 309 308 305 306 301
19 55 113 65 47 56 71 179 215 241 230 225 221 193 204 208 234 244 276 320 299 304 308 312 319 324 326 328 332 333 333 333 330 323 326 327 328 326 328 328 325 324 324 319 317 314 311 302 302
99 53 48 42 19 64 222 266 254 256 332 169 184 202 214 222 233 237 266 297 302 311 316 319 321 323 324 325 325 326 328 330 330 330 332 334 333 332 331 330 328 324 322 317 316 313 310 308 303
73 97 62 80 81 24 309 264 280 244 225 216 208 210 220 220 221 253 265 285 292 304 310 313 318 322 326 330 334 336 336 337 336 332 332 332 331 328 326 324 323 319 315 313 312 309 306 302 302
113 106 97 74 46 15 304 265 291 219 208 211 214 216 220 227 233 259 286 286 296 300 304 310 317 324 329 331 333 333 334 332 330 326 325 325 323 323 322 321 319 316 313 314 313 309 306 301 299
122 95 136 63 360 326 319 252 237 233 212 222 223 221 226 233 248 245 261 271 281 291 299 307 310 311 316 320 323 324 324 324 323 323 324 324 327 326 326 323 320 315 314 314 311 308 304 300 297
142 238 275 120 340 226 315 286 227 194 218 231 227 225 227 231 235 249 259 267 275 282 290 297 299 305 308 309 312 312 313 317 319 321 321 321 323 321 322 321 319 315 314 313 309 306 302 300 298
151 306 305 137 44 318 246 291 90 208 228 239 232 230 231 233 233 243 252 261 272 279 285 294 300 298 300 303 306 311 314 316 319 317 317 318 320 321 323 322 320 316 315 313 310 303 302 300 298
4 339 331 311 23 302 275 268 276 254 234 249 249 237 233 235 239 239 252 265 273 278 286 292 293 294 298 304 311 314 316 312 316 315 315 317 321 321 321 319 316 313 311 307 302 301 300 297 300
336 326 315 303 37 322 283 289 288 280 261 243 250 243 238 241 242 239 250 263 271 278 283 284 286 293 302 308 314 315 316 319 317 317 316 316 317 317 318 317 315 313 310 306 305 302 301 301 301
332 311 326 296 142 329 307 295 291 320 270 252 244 245 242 241 235 237 245 256 266 270 278 278 284 292 301 306 312 315 317 318 315 315 310 314 315 317 317 315 312 309 305 302 301 299 300 298 302
0 328 340 305 319 261 301 280 197 180 253 263 244 241 239 238 237 239 242 250 263 269 272 276 283 291 299 304 314 317 316 315 313 309 312 315 317 318 315 311 308 305 302 300 298 298 297 298 295
308 29 325 303 326 300 2 289 294 159 280 222 237 237 243 243 242 243 244 249 254 262 265 277 284 296 306 310 315 316 316 312 309 311 308 309 310 308 304 305 303 301 300 298 296 296 289 291 292
322 331 309 314 270 315 150 280 287 191 174 196 226 240 245 245 244 244 246 252 256 258 273 281 293 302 306 311 314 316 312 310 309 310 308 306 308 301 300 299 299 299 297 296 295 295 292 288 287
313 304 270 258 243 273 73 359 284 252 75 147 168 311 309 265 251 249 249 251 258 268 277 285 293 300 310 311 314 315 314 314 313 313 309 308 304 304 302 299 296 295 296 295 293 292 291 289 286
304 312 331 327 291 279 126 275 258 292 296 290 326 344 339 306 251 253 258 258 272 274 282 295 303 308 312 317 317 317 316 315 312 312 310 309 307 304 302 300 298 296 294 293 293 292 292 291 289
342 334 352 309 307 310 155 234 258 80 350 279 267 289 327 319 282 268 272 277 281 285 294 299 304 312 318 319 318 318 316 314 311 311 310 306 307 304 303 302 299 298 295 294 292 290 288 289 288
6 348 12 288 88 282 243 267 268 47 315 280 302 332 345 355 338 321 313 302 297 306 311 311 318 321 321 322 321 319 318 317 315 312 310 307 306 306 305 303 302 300 298 295 291 289 288 286 286
310 9 309 118 318 307 237 268 257 289 263 18 22 333 308 333 337 339 321 299 309 319 322 325 328 323 324 322 322 321 321 318 316 314 311 309 308 308 307 305 304 302 299 296 293 289 287 286 287
169 206 190 290 251 272 304 274 179 203 153 142 279 241 318 328 327 324 321 325 337 337 329 328 326 327 327 325 325 325 323 321 317 315 313 311 311 311 307 306 305 304 302 297 297 292 287 287 289
260 255 221 245 202 251 294 273 41 130 131 127 311 294 319 317 322 335 344 344 340 329 327 331 330 331 330 331 329 328 324 322 319 317 315 315 311 308 306 303 303 302 302 302 302 296 287 290 292